Notices

What's New in latest Release from April 7th, 2021:

- Updated Glossary, including Speed of Maximum Gust, and Total Hourly Precipitation

- Updated national and regional climate services offices contacts and prices information

- Addition of station inventory lists for 1981-2010, 1971-2000, and 1961-1990 Normals.

If you haven't already, please take our survey and provide feedback about our website: https://eccc.sondage-survey.ca/f/LanguageSelection.aspx?s=442ca660-fcf1-47c0-95a9-59707d6fd709

Hourly Data Report for October 14, 2006

TORONTO CITY
ONTARIO

43°40'00.000" N
79°24'00.000" W
112.50 m
6158355
71508
XTO

Download Data

Hourly Data (October 2006)
Hourly Data Report for October 14, 2006
TIME
LST
Temp Definition
°C
Dew Point Definition
°C
Rel Hum Definition
%
Precip. Amount Definition
mm

Wind Dir Definition
10's deg

Wind Spd Definition
km/h
Visibility Definition
km
Stn Press Definition
kPa
Hmdx Definition


Wind Chill Definition


Weather Definition


00:00 6.1 0.9 69   LegendMM LegendMM   98.98     LegendNANA
01:00 5.9 1.5 73   LegendMM LegendMM   98.95     LegendNANA
02:00 5.8 1.5 74   LegendMM LegendMM   98.94     LegendNANA
03:00 5.7 1.7 75   LegendMM LegendMM   98.87     LegendNANA
04:00 6.2 2.2 76   LegendMM LegendMM   98.87     LegendNANA
05:00 6.6 1.0 67   LegendMM LegendMM   98.89     LegendNANA
06:00 6.7 0.3 64   LegendMM LegendMM   98.91     LegendNANA
07:00 6.1 0.8 69   LegendMM LegendMM   98.93     LegendNANA
08:00 6.1 1.3 71   LegendMM LegendMM   98.94     LegendNANA
09:00 6.3 1.1 69   LegendMM LegendMM   99.03     LegendNANA
10:00 6.2 2.8 79   LegendMM LegendMM   99.13     LegendNANA
11:00 7.9 1.6 64   LegendMM LegendMM   99.22     LegendNANA
12:00 9.0 0.7 56   LegendMM LegendMM   99.33     LegendNANA
13:00 7.1 3.1 76   LegendMM LegendMM   99.42     LegendNANA
14:00 6.1 1.8 74   LegendMM LegendMM   99.50     LegendNANA
15:00 7.7 2.5 70   LegendMM LegendMM   99.53     LegendNANA
16:00 8.8 0.8 57   LegendMM LegendMM   99.59     LegendNANA
17:00 7.5 0.9 63   LegendMM LegendMM   99.68     LegendNANA
18:00 7.3 1.9 69   LegendMM LegendMM   99.73     LegendNANA
19:00 7.2 2.2 70   LegendMM LegendMM   99.80     LegendNANA
20:00 7.5 1.3 65   LegendMM LegendMM   99.82     LegendNANA
21:00 7.4 0.3 61   LegendMM LegendMM   99.84     LegendNANA
22:00 7.1 0.0 61   LegendMM LegendMM   99.82     LegendNANA
23:00 6.4 0.2 64   LegendMM LegendMM   99.79     LegendNANA

Notes on Data Quality.

Legend

  • E = Estimated
  • M = Missing
  • NA = Not Available*
  • [empty] = Indicates an unobserved value
Date modified: